Location: Killam
(52.7910°N, 111.8608°W)
Time: 17:24:19
(UTC+00:00)

Vanguard 2 Rocket - Pass Details

Date: 22 February 2026
Orbit: 553 x 3286 km, 32.9° (Epoch: 11 March)

Event Time Altitude Azimuth Distance (km) Brightness Sun altitude
Rises 19:45:59 0° 238° (WSW) 7,235 11.9 27.2°
Reaches altitude 10° 19:51:31 10° 231° (SW) 6,225 11.8 27.2°
Maximum altitude 20:07:49 35° 176° (S) 3,975 12.3 27.0°
Drops below altitude 10° 20:20:08 10° 118° (ESE) 4,730 10.8 26.7°
Sets 20:23:38 0° 109° (ESE) 5,381 10.9 26.6°
